sat.trackr.live / text

‹ back to catalog

STARLINK-35081

NORAD 66148 · 2025-240C

PAYLOAD ACTIVE UNKNOWN

§ Identity

Operator
Country
US
Launch date
2025-10-25
Launch site
AFWTR
Launch vehicle
Mass (kg)
RCS (m²)

Purposes: comms

External: N2YO · Heavens-Above · Gunter

§ Orbital elements

Epoch: 2026-09-20T22:48:57.881952Z

Period
93.85 min
Inclination
53.1571°
Eccentricity
0.0001584
Mean motion
15.34378681 rev/d
Perigee alt
461.7 km
Apogee alt
463.9 km
Semi-major
6,840.9 km
B*
2.9616e-4
RAAN
231.5966°
Arg perigee
98.0355°
Mean anomaly
262.0828°
Rev number
5,194

§ Raw data

STARLINK-350811 66148U 25240C   26263.95066993  .00009636  00000+0  29616-3 0  99942 66148  53.1571 231.5966 0001584  98.0355 262.0828 15.34378681 51942

JSON: /api/v1/satellites/66148 · /tle

For live sub-satellite position, see the globe view (requires WebGL).

§ Visibility from observer

Set your observer location to see the next 7 days of passes ≥ 10°. The values pass through the URL so the page stays shareable.

No JS? Fill the form by hand. The geolocation button needs JavaScript.